,,,PA_Meas_PMT16A,,PR_Meas_QMR101_102,,RH_Meas_QMH101,,SR_Meas_QMS101,,TA_Meas_QMH101,,GenWind,,GenWind,
date,time,status,PA,status,PR,status,RH,status,SR,status,TA,status,DirAvg,status,SpdAvg,
2014-03-06, 00:00:04,VALID,1011.8,VALID,0,VALID,104,VALID,0,VALID,24.0253,VALID,342,VALID,0,
2014-03-06, 00:01:04,VALID,1011.77,VALID,0,VALID,104,VALID,0,VALID,24.0058,VALID,342,VALID,0,
2014-03-06, 00:02:04,VALID,1011.75,VALID,0,VALID,104,VALID,0,VALID,24.0253,VALID,342,VALID,0,
2014-03-06, 00:03:04,VALID,1011.75,VALID,0,VALID,104,VALID,0,VALID,23.9863,VALID,342,VALID,0,
2014-03-06, 00:04:04,VALID,1011.71,VALID,0,VALID,104,VALID,0,VALID,23.9668,VALID,342,VALID,0,
2014-03-06, 00:05:04,VALID,1011.69,VALID,0,VALID,104,VALID,0,VALID,23.9473,VALID,342,VALID,0,
2014-03-06, 00:06:04,VALID,1011.72,VALID,0,VALID,104,VALID,0,VALID,23.9278,VALID,342,VALID,0,
2014-03-06, 00:07:04,VALID,1011.71,VALID,0,VALID,104,VALID,0,VALID,23.9473,VALID,342,VALID,0,
2014-03-06, 00:08:04,VALID,1011.69,VALID,0,VALID,104,VALID,0,VALID,23.9278,VALID,342,VALID,0,
2014-03-06, 00:09:04,VALID,1011.69,VALID,0,VALID,104,VALID,0,VALID,23.9084,VALID,342,VALID,0,
2014-03-06, 00:10:04,VALID,1011.69,VALID,0,VALID,104,VALID,0,VALID,23.9084,VALID,342,VALID,0,
2014-03-06, 00:11:04,VALID,1011.71,VALID,0,VALID,104,VALID,0,VALID,23.9084,VALID,342,VALID,0,
2014-03-06, 00:12:04,VALID,1011.69,VALID,0,VALID,104,VALID,0,VALID,23.8889,VALID,342,VALID,0,
2014-03-06, 00:13:04,VALID,1011.69,VALID,0,VALID,104,VALID,0,VALID,23.8481,VALID,342,VALID,0,
2014-03-06, 00:14:04,VALID,1011.69,VALID,0,VALID,104,VALID,0,VALID,23.8499,VALID,342,VALID,0,
2014-03-06, 00:15:04,VALID,1011.66,VALID,0,VALID,104,VALID,0,VALID,23.8304,VALID,342,VALID,0,
2014-03-06, 00:16:04,VALID,1011.69,VALID,0,VALID,104,VALID,0,VALID,23.8091,VALID,342,VALID,0,
2014-03-06, 00:17:04,VALID,1011.7,VALID,0,VALID,104,VALID,0,VALID,23.8109,VALID,342,VALID,0,
2014-03-06, 00:18:04,VALID,1011.66,VALID,0,VALID,104,VALID,0,VALID,23.7914,VALID,342,VALID,0,
2014-03-06, 00:19:04,VALID,1011.62,VALID,0,VALID,104,VALID,0,VALID,23.7914,VALID,342,VALID,0,
2014-03-06, 00:20:04,VALID,1011.62,VALID,0,VALID,104,VALID,0,VALID,23.7701,VALID,342,VALID,0,
2014-03-06, 00:21:04,VALID,1011.61,VALID,0,VALID,104,VALID,0,VALID,23.7701,VALID,342,VALID,0,
2014-03-06, 00:22:04,VALID,1011.62,VALID,0,VALID,104,VALID,0,VALID,23.7701,VALID,342,VALID,0,
2014-03-06, 00:23:04,VALID,1011.58,VALID,0,VALID,104,VALID,0,VALID,23.7914,VALID,342,VALID,0,
2014-03-06, 00:24:04,VALID,1011.57,VALID,0,VALID,104,VALID,0,VALID,23.7701,VALID,342,VALID,0,
2014-03-06, 00:25:04,VALID,1011.56,VALID,0,VALID,104,VALID,0,VALID,23.772,VALID,342,VALID,0,
2014-03-06, 00:26:04,VALID,1011.57,VALID,0,VALID,104,VALID,0,VALID,23.772,VALID,342,VALID,0,
2014-03-06, 00:27:04,VALID,1011.56,VALID,0,VALID,104,VALID,0,VALID,23.772,VALID,342,VALID,0,
2014-03-06, 00:28:04,VALID,1011.55,VALID,0,VALID,104,VALID,0,VALID,23.772,VALID,342,VALID,0,
2014-03-06, 00:29:04,VALID,1011.51,VALID,0,VALID,104,VALID,0,VALID,23.7701,VALID,342,VALID,0,
2014-03-06, 00:30:04,VALID,1011.49,VALID,0,VALID,104,VALID,0,VALID,23.772,VALID,342,VALID,0,
2014-03-06, 00:31:04,VALID,1011.42,VALID,0,VALID,104,VALID,0,VALID,23.772,VALID,342,VALID,0,
2014-03-06, 00:32:04,VALID,1011.44,VALID,0,VALID,104,VALID,0,VALID,23.772,VALID,342,VALID,0,
2014-03-06, 00:33:04,VALID,1011.38,VALID,0,VALID,104,VALID,0,VALID,23.7525,VALID,342,VALID,0,
2014-03-06, 00:34:04,VALID,1011.35,VALID,0,VALID,104,VALID,0,VALID,23.7312,VALID,342,VALID,0,
2014-03-06, 00:35:04,VALID,1011.35,VALID,0,VALID,104,VALID,0,VALID,23.7525,VALID,342,VALID,0,
2014-03-06, 00:36:04,VALID,1011.35,VALID,0,VALID,104,VALID,0,VALID,23.733,VALID,342,VALID,0,
2014-03-06, 00:37:04,VALID,1011.35,VALID,0,VALID,104,VALID,0,VALID,23.7525,VALID,342,VALID,0,
2014-03-06, 00:38:04,VALID,1011.36,VALID,0,VALID,104,VALID,0,VALID,23.733,VALID,342,VALID,0,
2014-03-06, 00:39:04,VALID,1011.34,VALID,0,VALID,104,VALID,0,VALID,23.733,VALID,342,VALID,0,
2014-03-06, 00:40:04,VALID,1011.32,VALID,0,VALID,104,VALID,0,VALID,23.733,VALID,342,VALID,0,
2014-03-06, 00:41:04,VALID,1011.32,VALID,0,VALID,104,VALID,0,VALID,23.7117,VALID,342,VALID,0,
2014-03-06, 00:42:04,VALID,1011.3,VALID,0,VALID,104,VALID,0,VALID,23.7135,VALID,342,VALID,0,
2014-03-06, 00:43:04,VALID,1011.24,VALID,0,VALID,104,VALID,0,VALID,23.6922,VALID,342,VALID,0,
2014-03-06, 00:44:04,VALID,1011.25,VALID,0,VALID,104,VALID,0,VALID,23.7525,VALID,342,VALID,0,
2014-03-06, 00:45:04,VALID,1011.23,VALID,0,VALID,104,VALID,0,VALID,23.772,VALID,342,VALID,0,
2014-03-06, 00:46:04,VALID,1011.21,VALID,0,VALID,104,VALID,0,VALID,23.7117,VALID,342,VALID,0,
2014-03-06, 00:47:04,VALID,1011.2,VALID,0,VALID,104,VALID,0,VALID,23.733,VALID,342,VALID,0,
2014-03-06, 00:48:04,VALID,1011.18,VALID,0,VALID,104,VALID,0,VALID,23.733,VALID,342,VALID,0,
2014-03-06, 00:49:04,VALID,1011.15,VALID,0,VALID,104,VALID,0,VALID,23.733,VALID,342,VALID,0,
2014-03-06, 00:50:04,VALID,1011.11,VALID,0,VALID,104,VALID,0,VALID,23.733,VALID,342,VALID,0,
2014-03-06, 00:51:04,VALID,1011.13,VALID,0,VALID,104,VALID,0,VALID,23.733,VALID,342,VALID,0,
2014-03-06, 00:52:04,VALID,1011.11,VALID,0,VALID,104,VALID,0,VALID,23.7135,VALID,342,VALID,0,
2014-03-06, 00:53:04,VALID,1011.08,VALID,0,VALID,104,VALID,0,VALID,23.733,VALID,342,VALID,0,
2014-03-06, 00:54:04,VALID,1011.05,VALID,0,VALID,104,VALID,0,VALID,23.7135,VALID,342,VALID,0,
2014-03-06, 00:55:04,VALID,1011.05,VALID,0,VALID,104,VALID,0,VALID,23.7135,VALID,342,VALID,0,
2014-03-06, 00:56:04,VALID,1011.05,VALID,0,VALID,104,VALID,0,VALID,23.7135,VALID,342,VALID,0,
2014-03-06, 00:57:04,VALID,1011.01,VALID,0,VALID,104,VALID,0,VALID,23.7135,VALID,342,VALID,0,
2014-03-06, 00:58:04,VALID,1011.01,VALID,0,VALID,104,VALID,0,VALID,23.694,VALID,342,VALID,0,
2014-03-06, 00:59:04,VALID,1011,VALID,0,VALID,104,VALID,0,VALID,23.6532,VALID,342,VALID,0,
2014-03-06, 01:00:04,VALID,1010.99,VALID,0,VALID,104,VALID,0,VALID,23.6532,VALID,342,VALID,0,
2014-03-06, 01:01:04,VALID,1011,VALID,0,VALID,104,VALID,0,VALID,23.6745,VALID,342,VALID,0,
2014-03-06, 01:02:04,VALID,1010.99,VALID,0,VALID,104,VALID,0,VALID,23.7135,VALID,342,VALID,0,
2014-03-06, 01:03:04,VALID,1010.97,VALID,0,VALID,104,VALID,0,VALID,23.7135,VALID,342,VALID,0,
2014-03-06, 01:04:04,VALID,1010.97,VALID,0,VALID,104,VALID,0,VALID,23.694,VALID,342,VALID,0,
2014-03-06, 01:05:04,VALID,1010.97,VALID,0,VALID,104,VALID,0,VALID,23.7135,VALID,342,VALID,0,
2014-03-06, 01:06:04,VALID,1010.97,VALID,0,VALID,104,VALID,0,VALID,23.694,VALID,342,VALID,0,
2014-03-06, 01:07:04,VALID,1010.93,VALID,0,VALID,104,VALID,0,VALID,23.694,VALID,342,VALID,0,
2014-03-06, 01:08:04,VALID,1010.95,VALID,0,VALID,104,VALID,0,VALID,23.6727,VALID,342,VALID,0,
2014-03-06, 01:09:04,VALID,1010.9,VALID,0,VALID,104,VALID,0,VALID,23.694,VALID,342,VALID,0,
2014-03-06, 01:10:04,VALID,1010.91,VALID,0,VALID,104,VALID,0,VALID,23.694,VALID,342,VALID,0,
2014-03-06, 01:11:04,VALID,1010.91,VALID,0,VALID,104,VALID,0,VALID,23.7135,VALID,342,VALID,0,
2014-03-06, 01:12:04,VALID,1010.87,VALID,0,VALID,104,VALID,0,VALID,23.733,VALID,342,VALID,0,
2014-03-06, 01:13:04,VALID,1010.87,VALID,0,VALID,104,VALID,0,VALID,23.7525,VALID,342,VALID,0,
2014-03-06, 01:14:04,VALID,1010.84,VALID,0,VALID,104,VALID,0,VALID,23.7312,VALID,342,VALID,0,
2014-03-06, 01:15:04,VALID,1010.81,VALID,0,VALID,104,VALID,0,VALID,23.7525,VALID,342,VALID,0,
2014-03-06, 01:16:04,VALID,1010.77,VALID,0,VALID,104,VALID,0,VALID,23.7507,VALID,342,VALID,0,
2014-03-06, 01:17:04,VALID,1010.78,VALID,0,VALID,104,VALID,0,VALID,23.772,VALID,342,VALID,0,
2014-03-06, 01:18:04,VALID,1010.78,VALID,0,VALID,104,VALID,0,VALID,23.7914,VALID,342,VALID,0,
2014-03-06, 01:19:04,VALID,1010.74,VALID,0,VALID,104,VALID,0,VALID,23.7914,VALID,342,VALID,0,
2014-03-06, 01:20:04,VALID,1010.73,VALID,0,VALID,104,VALID,0,VALID,23.7507,VALID,342,VALID,0,
2014-03-06, 01:21:04,VALID,1010.7,VALID,0,VALID,104,VALID,0,VALID,23.7914,VALID,342,VALID,0,
2014-03-06, 01:22:04,VALID,1010.7,VALID,0,VALID,104,VALID,0,VALID,23.772,VALID,342,VALID,0,
2014-03-06, 01:23:04,VALID,1010.71,VALID,0,VALID,104,VALID,0,VALID,23.772,VALID,342,VALID,0,
2014-03-06, 01:24:04,VALID,1010.68,VALID,0,VALID,104,VALID,0,VALID,23.7914,VALID,342,VALID,0,
2014-03-06, 01:25:04,VALID,1010.7,VALID,0,VALID,104,VALID,0,VALID,23.772,VALID,342,VALID,0,
2014-03-06, 01:26:04,VALID,1010.67,VALID,0,VALID,104,VALID,0,VALID,23.7701,VALID,342,VALID,0,
2014-03-06, 01:27:04,VALID,1010.69,VALID,0,VALID,104,VALID,0,VALID,23.772,VALID,342,VALID,0,
2014-03-06, 01:28:04,VALID,1010.7,VALID,0,VALID,104,VALID,0,VALID,23.7914,VALID,342,VALID,0,
2014-03-06, 01:29:04,VALID,1010.71,VALID,0,VALID,104,VALID,0,VALID,23.7914,VALID,342,VALID,0,
2014-03-06, 01:30:04,VALID,1010.68,VALID,0,VALID,104,VALID,0,VALID,23.772,VALID,342,VALID,0,
2014-03-06, 01:31:04,VALID,1010.69,VALID,0,VALID,104,VALID,0,VALID,23.7701,VALID,342,VALID,0,
2014-03-06, 01:32:04,VALID,1010.66,VALID,0,VALID,104,VALID,0,VALID,23.8109,VALID,342,VALID,0,
2014-03-06, 01:33:04,VALID,1010.63,VALID,0,VALID,104,VALID,0,VALID,23.8109,VALID,342,VALID,0,
2014-03-06, 01:34:04,VALID,1010.64,VALID,0,VALID,104,VALID,0,VALID,23.8109,VALID,342,VALID,0,
2014-03-06, 01:35:04,VALID,1010.6,VALID,0,VALID,104,VALID,0,VALID,23.8109,VALID,342,VALID,0,
2014-03-06, 01:36:04,VALID,1010.61,VALID,0,VALID,104,VALID,0,VALID,23.7914,VALID,342,VALID,0,
2014-03-06, 01:37:04,VALID,1010.58,VALID,0,VALID,104,VALID,0,VALID,23.7914,VALID,342,VALID,0,
2014-03-06, 01:38:04,VALID,1010.58,VALID,0,VALID,104,VALID,0,VALID,23.772,VALID,342,VALID,0,
2014-03-06, 01:39:04,VALID,1010.59,VALID,0,VALID,104,VALID,0,VALID,23.772,VALID,342,VALID,0,
2014-03-06, 01:40:04,VALID,1010.56,VALID,0,VALID,104,VALID,0,VALID,23.7117,VALID,342,VALID,0,
2014-03-06, 01:41:04,VALID,1010.55,VALID,0,VALID,104,VALID,0,VALID,23.6922,VALID,342,VALID,0,
2014-03-06, 01:42:04,VALID,1010.57,VALID,0,VALID,104,VALID,0,VALID,23.6532,VALID,342,VALID,0,
2014-03-06, 01:43:04,VALID,1010.57,VALID,0,VALID,104,VALID,0,VALID,23.6356,VALID,342,VALID,0,
2014-03-06, 01:44:04,VALID,1010.56,VALID,0,VALID,104,VALID,0,VALID,23.5966,VALID,342,VALID,0,
2014-03-06, 01:45:04,VALID,1010.55,VALID,0,VALID,104,VALID,0,VALID,23.5966,VALID,342,VALID,0,
2014-03-06, 01:46:04,VALID,1010.55,VALID,0,VALID,104,VALID,0,VALID,23.5558,VALID,342,VALID,0,
2014-03-06, 01:47:04,VALID,1010.5,VALID,0,VALID,104,VALID,0,VALID,23.5363,VALID,342,VALID,0,
2014-03-06, 01:48:04,VALID,1010.48,VALID,0,VALID,104,VALID,0,VALID,23.5576,VALID,342,VALID,0,
2014-03-06, 01:49:04,VALID,1010.45,VALID,0,VALID,104,VALID,0,VALID,23.5381,VALID,342,VALID,0,
2014-03-06, 01:50:04,VALID,1010.45,VALID,0,VALID,104,VALID,0,VALID,23.4797,VALID,342,VALID,0,
2014-03-06, 01:51:04,VALID,1010.44,VALID,0,VALID,104,VALID,0,VALID,23.4,VALID,342,VALID,0,
2014-03-06, 01:52:04,VALID,1010.42,VALID,0,VALID,104,VALID,0,VALID,23.361,VALID,342,VALID,0,
2014-03-06, 01:53:04,VALID,1010.37,VALID,0,VALID,104,VALID,0,VALID,23.3628,VALID,342,VALID,0,
2014-03-06, 01:54:04,VALID,1010.38,VALID,0,VALID,104,VALID,0,VALID,23.3433,VALID,342,VALID,0,
2014-03-06, 01:55:04,VALID,1010.4,VALID,0,VALID,104,VALID,0,VALID,23.3433,VALID,342,VALID,0,
2014-03-06, 01:56:04,VALID,1010.4,VALID,0,VALID,104,VALID,0,VALID,23.3628,VALID,342,VALID,0,
2014-03-06, 01:57:04,VALID,1010.36,VALID,0,VALID,104,VALID,0,VALID,23.3823,VALID,342,VALID,0,
2014-03-06, 01:58:04,VALID,1010.35,VALID,0,VALID,104,VALID,0,VALID,23.3628,VALID,342,VALID,0,
2014-03-06, 01:59:04,VALID,1010.37,VALID,0,VALID,104,VALID,0,VALID,23.3628,VALID,342,VALID,0,
2014-03-06, 02:00:04,VALID,1010.33,VALID,0,VALID,104,VALID,0,VALID,23.3645,VALID,342,VALID,0,
2014-03-06, 02:01:04,VALID,1010.3,VALID,0,VALID,104,VALID,0,VALID,23.3451,VALID,342,VALID,0,
2014-03-06, 02:02:04,VALID,1010.32,VALID,0,VALID,104,VALID,0,VALID,23.3238,VALID,342,VALID,0,
2014-03-06, 02:03:04,VALID,1010.27,VALID,0,VALID,104,VALID,0,VALID,23.3026,VALID,342,VALID,0,
2014-03-06, 02:04:04,VALID,1010.27,VALID,0,VALID,104,VALID,0,VALID,23.3238,VALID,342,VALID,0,
2014-03-06, 02:05:04,VALID,1010.24,VALID,0,VALID,104,VALID,0,VALID,23.3433,VALID,342,VALID,0,
2014-03-06, 02:06:04,VALID,1010.23,VALID,0,VALID,104,VALID,0,VALID,23.3043,VALID,342,VALID,0,
2014-03-06, 02:07:04,VALID,1010.2,VALID,0,VALID,104,VALID,0,VALID,23.2848,VALID,342,VALID,0,
2014-03-06, 02:08:04,VALID,1010.18,VALID,0,VALID,104,VALID,0,VALID,23.2671,VALID,342,VALID,0,
2014-03-06, 02:09:04,VALID,1010.15,VALID,0,VALID,104,VALID,0,VALID,23.1679,VALID,342,VALID,0,
2014-03-06, 02:10:04,VALID,1010.15,VALID,0,VALID,104,VALID,0,VALID,23.1679,VALID,342,VALID,0,
2014-03-06, 02:11:04,VALID,1010.14,VALID,0,VALID,104,VALID,0,VALID,23.1892,VALID,342,VALID,0,
2014-03-06, 02:12:04,VALID,1010.11,VALID,0,VALID,104,VALID,0.112112,VALID,23.1857,VALID,342,VALID,0,
2014-03-06, 02:13:04,VALID,1010.1,VALID,0,VALID,104,VALID,0.112112,VALID,23.1662,VALID,342,VALID,0,
2014-03-06, 02:14:04,VALID,1010.09,VALID,0,VALID,104,VALID,0.112112,VALID,23.1467,VALID,342,VALID,0,
2014-03-06, 02:15:04,VALID,1010.09,VALID,0,VALID,104,VALID,0.112112,VALID,23.1467,VALID,342,VALID,0,
2014-03-06, 02:16:04,VALID,1010.08,VALID,0,VALID,104,VALID,0.112112,VALID,23.1662,VALID,342,VALID,0,
2014-03-06, 02:17:04,VALID,1010.08,VALID,0,VALID,104,VALID,0.112112,VALID,23.1662,VALID,342,VALID,0,
2014-03-06, 02:18:04,VALID,1010.08,VALID,0,VALID,104,VALID,0.112112,VALID,23.1662,VALID,342,VALID,0,
2014-03-06, 02:19:04,VALID,1010.07,VALID,0,VALID,104,VALID,0.112112,VALID,23.2246,VALID,342,VALID,0,
2014-03-06, 02:20:04,VALID,1010.07,VALID,0,INVALID,109.01,VALID,0.112112,VALID,23.1662,VALID,342,VALID,0,
2014-03-06, 02:21:04,VALID,1010.08,VALID,0,INVALID,109.025,VALID,0,VALID,23.1467,VALID,342,VALID,0,
2014-03-06, 02:22:04,VALID,1010.06,VALID,0,INVALID,109.041,VALID,0.112112,VALID,23.1272,VALID,342,VALID,0,
2014-03-06, 02:23:04,VALID,1010.03,VALID,0,INVALID,109.041,VALID,0.112112,VALID,23.1077,VALID,342,VALID,0,
2014-03-06, 02:24:04,VALID,1010.03,VALID,0,INVALID,109.056,VALID,0.224224,VALID,23.1077,VALID,342,VALID,0,
2014-03-06, 02:25:04,VALID,1010.01,VALID,0,INVALID,109.056,VALID,0.112112,VALID,23.0883,VALID,342,VALID,0,
2014-03-06, 02:26:04,VALID,1010,VALID,0,INVALID,109.048,VALID,0.112112,VALID,23.0865,VALID,342,VALID,0,
2014-03-06, 02:27:04,VALID,1009.98,VALID,0,INVALID,109.094,VALID,0,VALID,23.09,VALID,342,VALID,0,
2014-03-06, 02:28:04,VALID,1009.92,VALID,0,INVALID,109.094,VALID,0,VALID,23.0705,VALID,342,VALID,0,
2014-03-06, 02:29:04,VALID,1009.94,VALID,0,INVALID,109.102,VALID,0,VALID,23.09,VALID,342,VALID,0,
2014-03-06, 02:30:04,VALID,1009.9,VALID,0,INVALID,109.117,VALID,0,VALID,23.09,VALID,342,VALID,0,
2014-03-06, 02:31:04,VALID,1009.92,VALID,0,INVALID,109.14,VALID,0,VALID,23.1095,VALID,342,VALID,0,
2014-03-06, 02:32:04,VALID,1009.91,VALID,0,INVALID,109.109,VALID,0,VALID,23.09,VALID,342,VALID,0,
2014-03-06, 02:33:04,VALID,1009.88,VALID,0,INVALID,109.163,VALID,0,VALID,23.09,VALID,342,VALID,0,
2014-03-06, 02:34:04,VALID,1009.88,VALID,0,INVALID,109.147,VALID,0,VALID,23.0511,VALID,342,VALID,0,
2014-03-06, 02:35:04,VALID,1009.9,VALID,0,INVALID,109.208,VALID,0,VALID,23.0316,VALID,342,VALID,0,
2014-03-06, 02:36:04,VALID,1009.91,VALID,0,INVALID,109.216,VALID,0,VALID,22.9731,VALID,342,VALID,0,
2014-03-06, 02:37:04,VALID,1009.9,VALID,0,INVALID,109.216,VALID,0,VALID,22.9342,VALID,342,VALID,0,
2014-03-06, 02:38:04,VALID,1009.91,VALID,0,INVALID,109.216,VALID,0,VALID,22.9147,VALID,342,VALID,0,
2014-03-06, 02:39:04,VALID,1009.87,VALID,0,INVALID,109.17,VALID,0,VALID,22.874,VALID,342,VALID,0,
2014-03-06, 02:40:04,VALID,1009.89,VALID,0,INVALID,109.163,VALID,0,VALID,22.8952,VALID,342,VALID,0,
2014-03-06, 02:41:04,VALID,1009.91,VALID,0,INVALID,109.186,VALID,0,VALID,22.9519,VALID,342,VALID,0,
2014-03-06, 02:42:04,VALID,1009.9,VALID,0,INVALID,109.201,VALID,0,VALID,22.8952,VALID,342,VALID,0,
2014-03-06, 02:43:04,VALID,1009.92,VALID,0,INVALID,109.208,VALID,0,VALID,22.874,VALID,342,VALID,0,
2014-03-06, 02:44:04,VALID,1009.91,VALID,0,INVALID,109.17,VALID,0,VALID,22.8562,VALID,342,VALID,0,
2014-03-06, 02:45:04,VALID,1009.9,VALID,0,INVALID,109.216,VALID,0,VALID,22.8562,VALID,342,VALID,0,
2014-03-06, 02:46:04,VALID,1009.9,VALID,0,INVALID,109.186,VALID,0,VALID,22.8562,VALID,342,VALID,0,
2014-03-06, 02:47:04,VALID,1009.95,VALID,0,INVALID,109.193,VALID,0,VALID,22.835,VALID,342,VALID,0,
2014-03-06, 02:48:04,VALID,1009.94,VALID,0,INVALID,109.186,VALID,0,VALID,22.835,VALID,342,VALID,0,
2014-03-06, 02:49:04,VALID,1009.93,VALID,0,INVALID,109.163,VALID,0,VALID,22.8952,VALID,342,VALID,0,
2014-03-06, 02:50:04,VALID,1009.95,VALID,0,INVALID,109.216,VALID,0,VALID,22.8952,VALID,342,VALID,0,
2014-03-06, 02:51:04,VALID,1009.94,VALID,0,INVALID,109.186,VALID,0,VALID,22.8757,VALID,342,VALID,0,
2014-03-06, 02:52:04,VALID,1009.94,VALID,0,INVALID,109.186,VALID,0,VALID,22.8952,VALID,342,VALID,0,
2014-03-06, 02:53:04,VALID,1009.96,VALID,0,INVALID,109.163,VALID,0,VALID,22.8757,VALID,342,VALID,0,
2014-03-06, 02:54:04,VALID,1009.94,VALID,0,INVALID,109.186,VALID,0,VALID,22.874,VALID,342,VALID,0,
2014-03-06, 02:55:04,VALID,1009.97,VALID,0,INVALID,109.193,VALID,0,VALID,22.8757,VALID,342,VALID,0,
2014-03-06, 02:56:04,VALID,1009.99,VALID,0,INVALID,109.17,VALID,0,VALID,22.8757,VALID,342,VALID,0,
2014-03-06, 02:57:04,VALID,1009.99,VALID,0,INVALID,109.178,VALID,0,VALID,22.8952,VALID,342,VALID,0,
2014-03-06, 02:58:04,VALID,1009.99,VALID,0,INVALID,109.155,VALID,0,VALID,22.8952,VALID,342,VALID,0,
2014-03-06, 02:59:04,VALID,1010.01,VALID,0,INVALID,109.178,VALID,0,VALID,22.8952,VALID,342,VALID,0,
2014-03-06, 03:00:04,VALID,1010.04,VALID,0,INVALID,109.193,VALID,0.112112,VALID,22.9147,VALID,342,VALID,0,
2014-03-06, 03:01:04,VALID,1010.02,VALID,0,INVALID,109.193,VALID,0,VALID,22.8757,VALID,342,VALID,0,
2014-03-06, 03:02:04,VALID,1010.06,VALID,0,INVALID,109.224,VALID,0,VALID,22.9129,VALID,342,VALID,0,
2014-03-06, 03:03:04,VALID,1010.06,VALID,0,INVALID,109.208,VALID,0,VALID,22.8368,VALID,342,VALID,0,
2014-03-06, 03:04:04,VALID,1010.08,VALID,0,INVALID,109.216,VALID,0,VALID,22.8368,VALID,342,VALID,0,
2014-03-06, 03:05:04,VALID,1010.07,VALID,0,INVALID,109.201,VALID,0,VALID,22.8173,VALID,342,VALID,0,
2014-03-06, 03:06:04,VALID,1010.07,VALID,0,INVALID,109.186,VALID,0,VALID,22.8562,VALID,342,VALID,0,
2014-03-06, 03:07:04,VALID,1010.1,VALID,0,INVALID,109.208,VALID,0,VALID,22.8368,VALID,342,VALID,0,
2014-03-06, 03:08:04,VALID,1010.09,VALID,0,INVALID,109.17,VALID,0,VALID,22.835,VALID,342,VALID,0,
2014-03-06, 03:09:04,VALID,1010.1,VALID,0,INVALID,109.17,VALID,0,VALID,22.8562,VALID,342,VALID,0,
2014-03-06, 03:10:04,VALID,1010.11,VALID,0,INVALID,109.201,VALID,0,VALID,22.8562,VALID,342,VALID,0,
2014-03-06, 03:11:04,VALID,1010.11,VALID,0,INVALID,109.208,VALID,0,VALID,22.8757,VALID,342,VALID,0,
2014-03-06, 03:12:04,VALID,1010.13,VALID,0,INVALID,109.208,VALID,0,VALID,22.8545,VALID,342,VALID,0,
2014-03-06, 03:13:04,VALID,1010.13,VALID,0,INVALID,109.178,VALID,0,VALID,22.835,VALID,342,VALID,0,
2014-03-06, 03:14:04,VALID,1010.11,VALID,0,INVALID,109.163,VALID,0,VALID,22.8562,VALID,342,VALID,0,
2014-03-06, 03:15:04,VALID,1010.14,VALID,0,INVALID,109.208,VALID,0,VALID,22.8562,VALID,342,VALID,0,
2014-03-06, 03:16:04,VALID,1010.11,VALID,0,INVALID,109.201,VALID,0,VALID,22.8368,VALID,342,VALID,0,
2014-03-06, 03:17:04,VALID,1010.12,VALID,0,INVALID,109.178,VALID,0,VALID,22.8368,VALID,342,VALID,0,
2014-03-06, 03:18:04,VALID,1010.15,VALID,0,INVALID,109.201,VALID,0,VALID,22.8155,VALID,342,VALID,0,
2014-03-06, 03:19:04,VALID,1010.15,VALID,0,INVALID,109.247,VALID,0,VALID,22.8368,VALID,342,VALID,0,
2014-03-06, 03:20:04,VALID,1010.15,VALID,0,INVALID,109.201,VALID,0,VALID,22.8173,VALID,342,VALID,0,
2014-03-06, 03:21:04,VALID,1010.15,VALID,0,INVALID,109.224,VALID,0,VALID,22.7961,VALID,342,VALID,0,
2014-03-06, 03:22:04,VALID,1010.17,VALID,0,INVALID,109.224,VALID,0,VALID,22.8173,VALID,342,VALID,0,
2014-03-06, 03:23:04,VALID,1010.14,VALID,0,INVALID,109.231,VALID,0,VALID,22.7978,VALID,342,VALID,0,
2014-03-06, 03:24:04,VALID,1010.15,VALID,0,INVALID,109.208,VALID,0,VALID,22.7978,VALID,342,VALID,0,
2014-03-06, 03:25:04,VALID,1010.16,VALID,0,INVALID,109.269,VALID,0,VALID,22.7978,VALID,342,VALID,0,
2014-03-06, 03:26:04,VALID,1010.15,VALID,0,INVALID,109.247,VALID,0,VALID,22.7783,VALID,342,VALID,0,
2014-03-06, 03:27:04,VALID,1010.18,VALID,0,INVALID,109.247,VALID,0,VALID,22.7783,VALID,342,VALID,0,
2014-03-06, 03:28:04,VALID,1010.18,VALID,0,INVALID,109.216,VALID,0,VALID,22.7588,VALID,342,VALID,0,
2014-03-06, 03:29:04,VALID,1010.18,VALID,0,INVALID,109.239,VALID,0,VALID,22.7783,VALID,342,VALID,0,
2014-03-06, 03:30:04,VALID,1010.2,VALID,0,INVALID,109.231,VALID,0,VALID,22.7394,VALID,342,VALID,0,
2014-03-06, 03:31:04,VALID,1010.25,VALID,0,INVALID,109.231,VALID,0,VALID,22.7394,VALID,342,VALID,0,
2014-03-06, 03:32:04,VALID,1010.2,VALID,0,INVALID,109.262,VALID,0,VALID,22.6987,VALID,342,VALID,0,
2014-03-06, 03:33:04,VALID,1010.24,VALID,0,INVALID,109.254,VALID,0,VALID,22.6987,VALID,342,VALID,0,
2014-03-06, 03:34:04,VALID,1010.24,VALID,0,INVALID,109.239,VALID,0,VALID,22.6792,VALID,342,VALID,0,
2014-03-06, 03:35:04,VALID,1010.23,VALID,0,INVALID,109.224,VALID,0,VALID,22.6987,VALID,342,VALID,0,
2014-03-06, 03:36:04,VALID,1010.24,VALID,0,INVALID,109.239,VALID,0,VALID,22.6987,VALID,342,VALID,0,
2014-03-06, 03:37:04,VALID,1010.23,VALID,0,INVALID,109.239,VALID,0,VALID,22.7199,VALID,342,VALID,0,
2014-03-06, 03:38:04,VALID,1010.26,VALID,0,INVALID,109.247,VALID,0,VALID,22.6792,VALID,342,VALID,0,
2014-03-06, 03:39:04,VALID,1010.27,VALID,0,INVALID,109.262,VALID,0,VALID,22.6809,VALID,342,VALID,0,
2014-03-06, 03:40:04,VALID,1010.29,VALID,0,INVALID,109.239,VALID,0,VALID,22.7004,VALID,342,VALID,0,
2014-03-06, 03:41:04,VALID,1010.3,VALID,0,INVALID,109.224,VALID,0,VALID,22.7199,VALID,342,VALID,0,
2014-03-06, 03:42:04,VALID,1010.29,VALID,0,INVALID,109.208,VALID,0,VALID,22.7199,VALID,342,VALID,0,
2014-03-06, 03:43:04,VALID,1010.29,VALID,0,INVALID,109.208,VALID,0,VALID,22.6987,VALID,342,VALID,0,
2014-03-06, 03:44:04,VALID,1010.32,VALID,0,INVALID,109.224,VALID,0,VALID,22.7199,VALID,342,VALID,0,
2014-03-06, 03:45:04,VALID,1010.33,VALID,0,INVALID,109.224,VALID,0,VALID,22.7199,VALID,342,VALID,0,
2014-03-06, 03:46:04,VALID,1010.32,VALID,0,INVALID,109.239,VALID,0,VALID,22.7199,VALID,342,VALID,0,
2014-03-06, 03:47:04,VALID,1010.35,VALID,0,INVALID,109.231,VALID,0,VALID,22.7199,VALID,342,VALID,0,
2014-03-06, 03:48:04,VALID,1010.37,VALID,0,INVALID,109.239,VALID,0,VALID,22.7199,VALID,342,VALID,0,
2014-03-06, 03:49:04,VALID,1010.4,VALID,0,INVALID,109.186,VALID,0,VALID,22.7199,VALID,342,VALID,0,
2014-03-06, 03:50:04,VALID,1010.39,VALID,0,INVALID,109.216,VALID,0,VALID,22.7199,VALID,342,VALID,0,
2014-03-06, 03:51:04,VALID,1010.4,VALID,0,INVALID,109.216,VALID,0,VALID,22.7199,VALID,342,VALID,0,
2014-03-06, 03:52:04,VALID,1010.38,VALID,0,INVALID,109.216,VALID,0,VALID,22.7004,VALID,342,VALID,0,
2014-03-06, 03:53:04,VALID,1010.4,VALID,0,INVALID,109.231,VALID,0,VALID,22.7004,VALID,342,VALID,0,
2014-03-06, 03:54:04,VALID,1010.39,VALID,0,INVALID,109.224,VALID,0,VALID,22.7199,VALID,342,VALID,0,
2014-03-06, 03:55:04,VALID,1010.42,VALID,0,INVALID,109.231,VALID,0,VALID,22.7004,VALID,342,VALID,0,
2014-03-06, 03:56:04,VALID,1010.41,VALID,0,INVALID,109.224,VALID,0,VALID,22.7199,VALID,342,VALID,0,
2014-03-06, 03:57:04,VALID,1010.39,VALID,0,INVALID,109.231,VALID,0.112112,VALID,22.6809,VALID,342,VALID,0,
2014-03-06, 03:58:04,VALID,1010.41,VALID,0,INVALID,109.224,VALID,0,VALID,22.642,VALID,342,VALID,0,
2014-03-06, 03:59:04,VALID,1010.44,VALID,0,INVALID,109.224,VALID,0,VALID,22.6809,VALID,342,VALID,0,
2014-03-06, 04:00:04,VALID,1010.45,VALID,0,INVALID,109.247,VALID,0,VALID,22.642,VALID,342,VALID,0,
2014-03-06, 04:01:04,VALID,1010.48,VALID,0,INVALID,109.224,VALID,0,VALID,22.6013,VALID,342,VALID,0,
2014-03-06, 04:02:04,VALID,1010.48,VALID,0,INVALID,109.239,VALID,0,VALID,22.6225,VALID,342,VALID,0,